Weather History for KMQB - March, 2013

Change the Weather History Date:

Friday, March 29, 2013

  Actual Average (KBRL) Record (KBRL)
Temperature  
Mean Temperature 44 °F 47 °F  
Max Temperature 58 °F 58 °F 88 °F (1986)
Min Temperature 32 °F 37 °F 10 °F (1969)
Degree Days  
Heating Degree Days 20 18  
Month to date heating degree days 694  
Since 1 July heating degree days 5072  
Cooling Degree Days 0 0  
Month to date cooling degree days 0  
Year to date cooling degree days 0  
Moisture  
Dew Point 33 °F    
Average Humidity 68    
Maximum Humidity 93    
Minimum Humidity 37    
Precipitation  
Precipitation 0.00 in 0.10 in 0.79 in (1960)
Month to date precipitation 2.59  
Year to date precipitation 5.45  
Sea Level Pressure  
Sea Level Pressure 30.27 in    
Wind  
Wind Speed 4 mph (East)    
Max Wind Speed 8 mph    
Max Gust Speed -    
Visibility 10 miles    
Events      
T = Trace of Precipitation, MM = Missing Value Source: NWS Daily Summary

Daily Weather History Graph

Daily Weather History Graph

Search for Another Location

Airport or City:

Trip Planner

Search our weather history database for the weather conditions in past years. The results will help you decide how hot, cold, wet, or windy it might be!

Date:

Astronomy

Mar. 29, 2013 Rise Set
Actual Time 6:50 AM CDT 7:24 PM CDT
Civil Twilight 6:23 AM CDT 7:51 PM CDT
Nautical Twilight 5:51 AM CDT 8:24 PM CDT
Astronomical Twilight 5:17 AM CDT 8:57 PM CDT
Moon 10:25 PM CDT (3/29) 7:59 AM CDT (3/29)
Length of Visible Light 13h 28m
Length of Day
12h 33m
Waning Gibbous, 93% of the Moon is Illuminated
Mar 29
Waning Gibbous
Apr 2
Last Quarter
Apr 10
New
Apr 18
First Quarter
Apr 25
Full

Hourly Weather History & Observations

Time (CDT) Temp. Windchill Dew Point Humidity Pressure Visibility Wind Dir Wind Speed Gust Speed Precip Events Conditions
12:15 AM 37.4 °F 34.9 °F 32.2 °F 81% 30.31 in 10.0 mi ENE 3.5 mph - N/A   Overcast
12:35 AM 36.9 °F 34.3 °F 32.2 °F 83% 30.31 in 10.0 mi East 3.5 mph - N/A   Overcast
12:55 AM 36.5 °F - 32.2 °F 84% 30.30 in 10.0 mi Calm Calm - N/A   Overcast
1:15 AM 36.3 °F 31.6 °F 32.4 °F 86% 30.30 in 10.0 mi NE 5.8 mph - N/A   Overcast
1:35 AM 36.9 °F 32.2 °F 32.5 °F 84% 30.30 in 10.0 mi ENE 5.8 mph - N/A   Overcast
1:55 AM 36.5 °F - 32.2 °F 84% 30.30 in 10.0 mi Calm Calm - N/A   Overcast
2:15 AM 36.3 °F 32.5 °F 32.0 °F 84% 30.30 in 10.0 mi East 4.6 mph - N/A   Mostly Cloudy
2:35 AM 35.8 °F 31.9 °F 32.0 °F 86% 30.29 in 10.0 mi East 4.6 mph - N/A   Mostly Cloudy
2:55 AM 35.2 °F 30.3 °F 31.8 °F 87% 30.29 in 10.0 mi ENE 5.8 mph - N/A   Overcast
3:15 AM 34.3 °F 29.2 °F 31.1 °F 88% 30.28 in 10.0 mi ENE 5.8 mph - N/A   Overcast
3:35 AM 33.8 °F 28.6 °F 32.0 °F 93% 30.28 in 10.0 mi ENE 5.8 mph - N/A   Overcast
3:55 AM 33.3 °F 27.9 °F 30.7 °F 90% 30.28 in 10.0 mi ENE 5.8 mph - N/A   Scattered Clouds
4:15 AM 32.7 °F 28.3 °F 30.2 °F 90% 30.28 in 10.0 mi ENE 4.6 mph - N/A   Mostly Cloudy
4:35 AM 32.5 °F - 30.2 °F 91% 30.28 in 10.0 mi Calm Calm - N/A   Mostly Cloudy
4:55 AM 33.8 °F 28.6 °F 30.2 °F 87% 30.28 in 10.0 mi ENE 5.8 mph - N/A   Scattered Clouds
5:15 AM 32.9 °F 28.5 °F 30.7 °F 92% 30.28 in 10.0 mi NE 4.6 mph - N/A   Clear
5:35 AM 32.4 °F 26.9 °F 30.6 °F 93% 30.28 in 10.0 mi ENE 5.8 mph - N/A   Scattered Clouds
5:55 AM 32.2 °F 26.7 °F 29.8 °F 91% 30.28 in 10.0 mi ENE 5.8 mph - N/A   Scattered Clouds
6:15 AM 32.0 °F 27.5 °F 30.2 °F 93% 30.28 in 10.0 mi East 4.6 mph - N/A   Scattered Clouds
6:35 AM 32.0 °F 26.4 °F 30.2 °F 93% 30.28 in 10.0 mi East 5.8 mph - N/A   Clear
6:55 AM 32.0 °F 28.7 °F 29.7 °F 91% 30.29 in 7.0 mi NNE 3.5 mph - N/A   Clear
7:15 AM 32.0 °F 26.4 °F 30.0 °F 92% 30.30 in 7.0 mi NE 5.8 mph - N/A   Clear
7:35 AM 32.2 °F 27.7 °F 30.2 °F 92% 30.30 in 7.0 mi ENE 4.6 mph - N/A   Clear
7:55 AM 33.6 °F 28.4 °F 31.5 °F 92% 30.30 in 7.0 mi ENE 5.8 mph - N/A   Clear
8:15 AM 35.2 °F 31.2 °F 32.0 °F 88% 30.31 in 7.0 mi ENE 4.6 mph - N/A   Clear
8:35 AM 36.5 °F 31.8 °F 32.5 °F 86% 30.30 in 7.0 mi ENE 5.8 mph - N/A   Clear
8:55 AM 37.8 °F 32.5 °F 32.5 °F 81% 30.31 in 7.0 mi ENE 6.9 mph - N/A   Clear
9:15 AM 39.4 °F 33.8 °F 33.1 °F 78% 30.31 in 10.0 mi ENE 8.1 mph - N/A   Clear
9:35 AM 40.8 °F 37.8 °F 33.8 °F 76% 30.31 in 10.0 mi East 4.6 mph - N/A   Clear
9:55 AM 43.2 °F 39.0 °F 35.1 °F 73% 30.31 in 10.0 mi East 6.9 mph - N/A   Clear
10:15 AM 45.5 °F 41.8 °F 35.6 °F 68% 30.31 in 10.0 mi East 6.9 mph - N/A   Clear
10:35 AM 48.0 °F - 36.0 °F 63% 30.31 in 10.0 mi East 5.8 mph - N/A   Scattered Clouds
10:55 AM 49.6 °F - 35.6 °F 59% 30.31 in 10.0 mi East 4.6 mph - N/A   Scattered Clouds
11:15 AM 50.5 °F - 35.2 °F 56% 30.31 in 10.0 mi East 5.8 mph - N/A   Scattered Clouds
11:35 AM 51.8 °F - 35.6 °F 54% 30.31 in 10.0 mi ENE 5.8 mph - N/A   Clear
11:55 AM 52.3 °F - 34.9 °F 51% 30.30 in 10.0 mi East 5.8 mph - N/A   Clear
12:15 PM 53.4 °F - 35.2 °F 50% 30.30 in 10.0 mi ESE 5.8 mph - N/A   Clear
12:35 PM 53.8 °F - 35.1 °F 49% 30.29 in 10.0 mi East 6.9 mph - N/A   Clear
12:55 PM 54.5 °F - 35.2 °F 48% 30.29 in 10.0 mi NE 4.6 mph - N/A   Clear
1:15 PM 54.3 °F - 34.7 °F 48% 30.28 in 10.0 mi ESE 3.5 mph - N/A   Clear
1:35 PM 55.2 °F - 35.4 °F 47% 30.28 in 10.0 mi ESE 4.6 mph - N/A   Scattered Clouds
1:55 PM 55.6 °F - 34.0 °F 44% 30.28 in 10.0 mi Calm Calm - N/A   Scattered Clouds
2:15 PM 54.7 °F - 33.6 °F 45% 30.27 in 3.0 mi North 3.5 mph - N/A   Haze
2:35 PM 55.9 °F - 33.6 °F 43% 30.26 in 10.0 mi SE 4.6 mph - N/A   Clear
2:55 PM 56.3 °F - 31.6 °F 39% 30.25 in 10.0 mi Calm Calm - N/A   Scattered Clouds
3:15 PM 57.2 °F - 34.0 °F 42% 30.25 in 10.0 mi NE 6.9 mph - N/A   Mostly Cloudy
3:35 PM 56.8 °F - 32.9 °F 40% 30.24 in 10.0 mi North 3.5 mph - N/A   Scattered Clouds
3:55 PM 57.0 °F - 32.5 °F 40% 30.23 in 10.0 mi ESE 4.6 mph - N/A   Clear
4:15 PM 56.5 °F - 31.5 °F 39% 30.23 in 10.0 mi Calm Calm - N/A   Clear
4:35 PM 57.6 °F - 32.0 °F 38% 30.23 in 10.0 mi Calm Calm - N/A   Clear
4:55 PM 57.2 °F - 30.9 °F 37% 30.22 in 10.0 mi NE 4.6 mph - N/A   Clear
5:15 PM 57.4 °F - 31.8 °F 38% 30.22 in 10.0 mi East 5.8 mph - N/A   Clear
5:35 PM 57.2 °F - 31.8 °F 38% 30.22 in 10.0 mi Calm Calm - N/A   Clear
5:55 PM 57.2 °F - 32.0 °F 38% 30.22 in 10.0 mi Calm Calm - N/A   Clear
6:15 PM 56.8 °F - 31.8 °F 39% 30.22 in 10.0 mi ENE 4.6 mph - N/A   Clear
6:35 PM 56.3 °F - 31.3 °F 39% 30.22 in 10.0 mi Calm Calm - N/A   Clear
6:55 PM 54.7 °F - 33.1 °F 44% 30.22 in 10.0 mi Calm Calm - N/A   Clear
7:15 PM 54.9 °F - 31.6 °F 41% 30.22 in 10.0 mi Calm Calm - N/A   Clear
7:35 PM 53.2 °F - 31.3 °F 43% 30.22 in 10.0 mi SSE 3.5 mph - N/A   Clear
7:55 PM 50.0 °F - 33.8 °F 54% 30.22 in 10.0 mi Calm Calm - N/A   Clear
8:15 PM 47.5 °F - 35.8 °F 64% 30.22 in 10.0 mi ESE 3.5 mph - N/A   Clear
8:35 PM 46.4 °F - 35.2 °F 65% 30.22 in 10.0 mi Calm Calm - N/A   Clear
8:55 PM 45.5 °F 43.2 °F 34.9 °F 66% 30.23 in 10.0 mi SE 4.6 mph - N/A   Clear
9:15 PM 44.1 °F 42.5 °F 34.3 °F 69% 30.23 in 10.0 mi SSE 3.5 mph - N/A   Clear
9:35 PM 43.7 °F 41.1 °F 35.4 °F 73% 30.24 in 10.0 mi SSE 4.6 mph - N/A   Clear
9:55 PM 41.0 °F 38.0 °F 33.8 °F 76% 30.24 in 10.0 mi SSE 4.6 mph - N/A   Clear
10:15 PM 41.2 °F 39.2 °F 34.3 °F 77% 30.25 in 10.0 mi South 3.5 mph - N/A   Clear
10:35 PM 41.5 °F 39.6 °F 34.3 °F 76% 30.24 in 10.0 mi SSE 3.5 mph - N/A   Clear
10:55 PM 41.4 °F - 34.2 °F 76% 30.24 in 10.0 mi Calm Calm - N/A   Clear
11:15 PM 40.3 °F - 33.8 °F 78% 30.24 in 10.0 mi Calm Calm - N/A   Clear
11:35 PM 39.7 °F - 34.3 °F 81% 30.23 in 10.0 mi Calm Calm - N/A   Clear
11:55 PM 38.7 °F - 32.5 °F 79% 30.23 in 10.0 mi Calm Calm - N/A   Clear